Temperature
13 12 12 11 11 12 12 12 12 12 12 12 12 13 13 14 14 14 14 15 16 17 18 18 19 19 19 19 19 18 18 18 17 17 17 17 17 17 16 16 16 15 15 15
12 12 12 11 10 11 11 11 12 12 11 12 12 13 13 13 13 13 14 14 15 16 17 17 17 18 18 18 18 18 17 17 17 16 16 16 16 16 16 16 16 15 15 15
11 12 12 10 9 9 10 10 11 10 10 11 12 12 13 13 13 13 14 14 15 15 16 16 16 17 17 17 17 17 17 16 16 16 16 16 16 16 16 15 15 15 15 15
10 11 10 9 10 9 10 10 10 10 11 11 11 12 13 13 13 13 14 15 15 15 15 15 15 16 16 16 16 15 15 15 15 15 15 15 15 15 15 15 15 15 15 15
9 10 10 10 11 10 9 10 10 10 10 10 11 12 13 13 13 14 14 15 15 15 15 15 15 15 15 15 15 15 14 14 14 14 14 14 14 14 14 14 14 14 14 15
9 10 9 10 11 10 10 10 10 9 10 10 10 10 11 13 14 14 15 15 15 15 15 15 15 14 14 14 14 13 13 13 13 13 13 13 13 13 13 13 13 13 14 14
9 9 9 10 11 11 10 9 10 10 10 10 10 10 11 13 14 14 15 15 15 15 15 15 14 14 14 13 13 13 12 12 12 12 12 12 12 12 12 12 12 13 13 13
8 9 9 11 11 10 9 11 10 11 11 11 11 12 12 13 14 15 15 15 15 15 15 14 14 14 14 13 13 12 12 12 12 12 12 12 12 12 12 12 12 12 12 13
9 9 11 12 11 11 11 11 11 11 11 11 11 12 13 14 14 15 15 15 15 15 15 15 14 14 14 13 13 13 12 12 12 12 12 11 11 11 12 12 12 12 12 12
10 10 11 11 11 11 11 11 11 11 12 12 12 12 13 14 14 15 15 15 15 15 15 15 15 14 14 13 13 13 12 12 12 11 11 11 11 11 11 12 12 12 12 12
9 11 11 12 12 12 12 12 12 12 12 12 12 12 13 13 14 15 15 16 16 15 15 15 15 14 14 13 13 12 12 12 12 11 11 11 11 11 11 11 11 11 11 11
9 11 11 12 12 12 12 12 12 12 12 12 12 12 13 14 14 15 15 15 16 16 15 15 15 15 14 14 13 13 12 12 12 11 11 11 11 11 11 10 10 11 11 11
13 12 12 12 12 12 12 12 12 12 12 12 12 12 13 14 14 15 15 16 16 16 16 15 15 15 15 14 13 13 12 12 12 11 11 11 11 11 10 10 10 10 10 10
13 13 12 12 12 12 11 11 11 11 11 12 12 12 13 14 15 15 16 16 16 16 16 16 15 15 15 14 14 13 12 12 12 11 11 11 11 11 10 10 10 9 9 9
13 13 12 12 12 11 11 11 11 11 11 12 12 12 13 14 15 15 16 16 16 16 16 16 16 15 15 14 14 13 12 12 12 11 11 11 11 11 10 10 10 9 9 9
13 12 12 12 12 11 11 11 11 11 11 11 12 12 12 13 14 15 16 16 16 16 16 16 16 16 15 15 14 13 13 12 12 11 11 11 11 11 10 10 10 9 9 9
12 12 12 12 11 11 11 11 11 11 11 11 11 12 12 13 14 16 16 17 17 17 17 16 16 16 15 15 14 14 13 12 12 11 11 11 11 11 10 10 10 10 9 9
13 13 12 12 11 11 11 11 11 11 11 11 11 12 12 13 14 15 16 17 17 17 17 16 16 16 15 15 14 14 13 12 12 11 11 11 11 10 10 10 10 10 10 9
13 12 12 11 11 11 11 11 11 11 11 11 11 12 12 12 13 14 15 16 17 17 17 17 16 16 15 15 14 14 13 12 11 11 11 11 11 11 10 10 10 10 10 10
13 12 12 11 11 11 11 11 11 11 11 11 11 12 12 12 13 14 15 16 16 16 17 17 16 16 15 15 14 14 13 12 12 11 11 11 11 10 10 10 10 10 10 10
12 12 12 11 11 11 11 11 11 11 11 11 11 11 11 12 12 13 14 16 16 16 16 16 16 16 15 15 14 14 13 12 11 11 11 11 11 10 10 10 10 10 10 10
12 12 12 11 11 11 11 11 11 11 11 11 11 11 12 12 12 13 13 14 15 16 16 16 16 16 15 15 14 14 13 12 11 11 11 11 11 11 10 10 10 10 10 10
12 12 12 11 11 11 11 11 11 11 11 11 11 11 11 11 12 12 13 14 14 15 16 16 16 16 15 15 14 14 13 12 11 11 11 11 11 10 10 10 10 10 10 9
12 12 12 12 11 11 11 11 11 11 11 11 11 11 11 12 12 12 12 13 14 15 15 16 16 16 15 15 14 14 13 12 11 11 11 10 10 10 10 10 10 10 10 9
12 12 12 12 11 11 11 11 11 11 11 11 11 11 11 11 11 12 12 13 14 14 15 15 15 15 15 15 14 14 13 12 11 11 11 10 10 10 10 10 10 10 9 9
12 12 12 12 12 11 11 11 11 11 11 11 11 11 11 11 12 12 12 13 13 14 14 15 15 15 15 14 14 13 13 12 11 11 11 10 10 10 10 10 10 9 9 9
12 12 12 12 12 11 11 11 11 11 11 11 11 11 11 11 11 12 12 12 13 13 14 14 14 14 14 14 14 13 13 12 12 11 11 10 10 10 10 9 9 9 9 9
Wind_Speed
3 8 10 14 15 15 9 6 4 6 8 13 15 13 13 14 14 14 14 14 12 10 8 7 7 6 4 1 1 3 3 3 1 1 2 3 4 4 5 5 6 6 6 6
4 8 13 16 19 16 12 10 9 9 9 14 14 11 12 15 16 16 14 13 12 11 10 10 9 9 8 7 5 6 6 4 2 1 1 3 3 3 3 4 4 5 6 7
3 2 4 10 12 11 8 11 9 9 9 15 16 15 12 13 15 14 13 12 12 10 10 10 9 9 10 9 10 10 8 5 4 3 2 3 2 1 1 2 2 3 5 6
2 5 6 3 5 5 5 8 10 9 11 14 15 13 7 9 13 13 11 10 10 8 8 7 7 9 9 9 9 9 8 7 6 5 4 4 4 4 3 1 1 2 4 5
3 3 2 3 4 3 3 3 7 10 13 15 16 8 6 12 14 11 9 6 6 5 5 7 7 7 8 8 8 8 7 6 6 5 5 5 5 5 3 2 2 2 2 4
4 3 1 4 6 3 2 2 5 8 11 13 13 9 9 17 17 13 9 5 4 5 6 6 5 6 8 7 7 6 5 5 5 5 5 5 5 4 3 2 2 2 2 2
4 2 1 5 6 3 2 4 9 7 8 8 6 5 12 17 14 10 7 4 3 4 4 3 3 5 6 6 5 4 4 5 5 5 5 4 4 4 4 4 4 3 3 2
2 2 3 4 2 2 4 5 6 7 7 8 9 11 12 13 12 11 7 4 2 2 1 1 1 4 4 5 4 3 3 5 5 6 6 5 6 6 6 6 5 5 4 4
4 4 5 2 2 4 4 5 5 6 8 9 9 10 11 11 12 9 7 5 3 1 1 2 1 1 3 4 4 3 4 4 4 5 6 6 7 7 6 7 6 5 5 4
1 3 3 3 2 3 4 5 7 8 9 8 8 10 11 11 11 9 7 6 3 1 1 2 2 1 1 3 4 5 4 3 3 4 5 6 6 6 7 7 7 6 6 5
2 3 2 3 3 5 6 7 8 8 7 7 8 9 8 9 10 9 7 6 4 2 2 3 3 2 1 2 4 5 3 2 2 2 3 4 5 6 6 6 5 4 4 4
6 7 5 5 6 5 5 6 7 7 7 8 7 8 8 9 8 8 8 6 5 4 3 4 4 4 2 1 4 4 2 1 1 1 1 2 2 3 7 6 9 10 8 6
7 7 7 5 4 4 4 5 6 6 6 7 8 7 8 8 8 9 9 7 7 7 5 5 5 6 5 2 3 4 2 1 0 1 0 1 1 1 1 3 6 9 10 9
7 6 3 3 3 3 4 5 6 6 6 7 7 8 8 8 9 10 10 9 8 7 6 6 6 6 6 4 4 4 3 1 1 1 1 0 1 1 2 2 3 4 6 8
8 7 6 3 0 3 4 5 6 7 7 8 7 8 9 9 10 11 11 10 7 6 5 5 6 7 5 6 6 5 3 1 1 1 1 2 2 3 3 3 3 3 3 5
8 7 6 3 2 3 4 5 5 7 7 7 8 9 10 10 10 10 10 9 7 7 7 6 7 7 7 7 6 5 3 3 2 2 2 2 3 3 3 3 3 3 4 4
10 7 5 3 2 3 4 4 5 6 7 8 9 10 10 10 10 10 11 10 9 8 7 6 7 6 7 8 7 5 3 2 2 3 2 3 3 3 3 3 3 3 2 3
10 9 8 6 5 4 5 6 6 7 7 8 9 9 9 10 11 11 12 11 10 8 6 5 5 6 8 8 6 5 4 3 2 3 3 3 3 3 4 3 3 2 2 3
10 9 8 7 6 5 4 5 6 7 8 7 7 8 9 9 10 10 10 9 8 8 8 7 4 7 8 8 7 5 5 4 3 3 3 4 4 3 3 3 3 2 2 2
10 9 7 6 5 4 5 5 6 6 6 6 7 8 9 10 10 10 9 7 6 6 9 7 3 5 7 8 8 5 5 5 5 4 3 3 3 3 3 3 3 3 2 2
10 9 7 6 5 5 5 5 4 5 6 6 6 7 9 10 9 8 8 8 9 10 9 5 2 4 6 7 8 5 5 5 5 4 4 4 4 4 4 3 3 3 3 3
9 8 8 6 5 5 5 4 4 4 5 6 7 7 8 8 9 9 8 6 8 13 8 3 2 5 8 9 6 6 5 6 5 4 4 4 4 4 4 4 4 3 4 4
8 8 7 7 6 5 4 3 3 4 5 6 7 7 7 7 6 7 9 8 9 13 8 4 4 8 11 7 6 6 6 6 5 5 4 4 4 5 5 5 4 5 5 5
9 8 8 7 5 4 4 5 5 4 5 6 6 6 5 6 6 6 7 11 13 13 7 6 6 9 10 6 6 6 5 5 5 4 4 4 4 5 5 5 5 5 5 6
9 8 7 6 5 5 6 5 5 5 5 5 7 7 6 4 5 7 9 10 12 11 6 5 5 9 7 6 6 6 5 5 5 5 5 5 5 5 5 5 6 6 5 5
9 7 6 7 6 5 5 4 4 4 4 5 5 6 6 6 7 7 7 9 10 8 5 3 2 5 4 5 6 6 6 6 6 5 5 5 6 6 6 6 7 6 6 6
8 6 5 4 5 5 5 5 5 5 5 5 5 6 6 6 7 7 8 7 7 6 4 3 2 3 4 4 5 6 6 6 6 6 5 5 6 6 6 7 6 6 6 6
Wind_Direction
52 72 70 48 30 24 34 31 74 77 45 8 355 354 3 15 21 25 22 20 20 18 16 19 19 14 3 351 139 151 132 109 88 97 239 237 229 224 221 213 212 209 211 215
68 93 72 46 25 21 26 31 47 49 29 354 348 357 12 14 17 20 16 18 21 26 31 33 34 38 42 46 57 86 87 75 77 87 285 269 255 245 237 236 230 212 211 213
12 15 55 32 4 7 22 31 26 28 355 341 346 352 2 8 8 12 11 13 18 24 31 37 40 48 49 49 55 64 71 69 54 51 20 336 319 328 286 265 243 227 220 213
40 41 55 313 285 323 355 42 27 6 349 346 337 319 325 7 2 357 2 10 15 24 38 45 53 57 55 52 57 60 58 52 42 41 30 13 15 6 349 328 274 239 234 227
63 75 90 326 330 335 334 2 14 353 346 347 341 338 345 352 350 343 348 360 14 31 52 51 49 54 60 54 54 54 46 40 32 33 33 26 16 358 343 334 317 283 255 232
58 81 54 297 306 302 214 300 356 341 337 341 354 12 333 328 331 333 341 354 21 36 51 52 42 53 56 45 44 41 36 35 30 34 38 23 5 349 338 330 315 315 313 260
54 82 280 273 303 350 64 302 311 309 311 323 331 281 288 309 318 322 327 339 25 52 54 41 45 60 50 31 13 356 24 38 34 30 29 19 5 358 353 358 8 10 14 11
59 48 283 295 17 39 255 269 284 289 293 300 298 297 307 316 321 324 323 322 351 41 23 353 52 68 42 5 337 356 41 46 37 28 24 23 19 14 14 19 25 21 25 24
179 210 232 217 198 236 238 270 278 280 290 296 301 307 316 318 322 318 314 307 303 271 277 313 340 78 29 338 350 45 66 59 44 37 33 30 31 25 21 20 23 18 23 26
136 230 208 201 250 273 267 267 275 280 288 294 299 306 315 321 327 326 320 313 308 308 263 273 290 277 334 349 35 76 82 76 54 51 43 37 36 31 32 23 19 19 23 26
200 231 210 284 284 283 291 290 290 294 292 295 303 310 313 321 327 328 323 315 309 284 242 228 218 231 298 51 80 87 87 76 58 63 72 59 52 40 34 30 21 22 23 28
205 212 191 243 262 278 294 302 306 312 315 317 316 314 320 323 324 327 323 320 314 295 257 224 208 220 238 116 115 113 95 65 15 56 100 113 94 62 37 36 35 43 47 49
180 189 192 226 263 289 298 310 317 321 319 321 323 321 324 321 320 324 324 320 306 285 258 225 209 217 225 191 137 135 140 148 17 13 346 191 178 145 58 16 26 36 37 40
171 160 179 223 266 306 324 328 334 334 327 322 316 318 321 319 320 326 325 314 302 286 255 222 210 217 215 184 149 145 148 135 104 29 4 92 144 145 132 85 29 6 9 21
172 167 181 197 20 357 346 342 343 333 325 323 319 321 323 325 323 320 318 318 316 304 267 229 214 219 201 170 153 152 153 153 94 53 59 81 89 94 98 93 66 29 10 6
168 157 146 122 37 340 334 334 328 319 318 317 320 321 319 316 313 312 316 325 323 306 278 245 226 216 185 166 154 151 164 170 140 95 84 92 97 97 98 93 75 53 31 7
152 160 161 178 257 287 293 296 298 302 310 313 314 316 320 323 325 325 326 326 315 295 277 247 233 206 176 167 159 160 167 169 132 105 110 124 124 122 122 117 102 75 28 11
166 171 177 189 208 244 281 294 297 303 303 302 311 322 328 328 325 321 320 322 326 324 309 278 240 188 173 168 161 156 158 164 150 137 132 130 133 130 129 129 125 105 46 31
160 168 183 202 215 223 243 270 286 295 302 310 320 322 320 318 315 314 318 325 330 326 312 306 254 179 172 172 156 148 153 161 153 142 138 132 127 129 135 140 140 129 101 69
165 172 187 210 225 224 248 272 287 299 306 314 321 326 328 324 322 322 324 319 303 290 294 297 236 176 172 169 154 145 147 154 155 151 143 141 147 150 150 153 152 143 122 105
171 180 196 212 231 246 257 271 285 297 305 315 321 319 318 318 322 327 330 325 317 321 321 308 201 174 169 161 151 141 143 149 156 158 156 157 159 157 156 156 155 149 138 124
175 186 204 214 223 246 264 269 271 285 304 314 317 321 326 327 328 329 320 296 302 319 324 303 237 183 171 157 147 145 147 152 157 159 160 162 163 163 164 160 156 151 142 135
179 190 204 212 216 229 256 267 267 282 296 303 308 316 318 314 316 324 323 313 315 315 314 282 249 191 166 154 151 150 152 156 162 167 171 173 173 170 169 166 159 151 144 137
182 192 204 209 203 208 242 258 265 274 286 292 293 300 305 314 317 307 295 306 315 314 303 280 249 183 162 156 154 153 156 162 166 167 166 166 167 165 162 157 151 147 143 139
184 191 197 196 202 218 232 246 269 285 295 296 297 301 299 290 291 304 311 313 319 320 309 290 231 175 162 160 161 161 163 171 172 165 162 162 165 163 160 156 153 149 145 143
182 189 197 201 202 211 218 225 242 263 270 281 290 294 300 305 307 310 314 319 323 324 313 293 219 176 171 171 171 169 168 171 170 168 169 168 168 164 162 161 155 152 149 146
183 184 189 208 223 220 220 224 234 247 243 243 265 283 295 308 315 319 323 327 331 328 316 287 233 200 190 184 180 177 173 171 170 169 168 167 166 167 168 163 157 151 148 149
Height
1532 1532 1532 1533 1530 1526 1523 1521 1523 1526 1527 1526 1520 1515 1510 1504 1499 1494 1490 1486 1482 1480 1478 1478 1478 1479 1480 1481 1482 1485 1487 1487 1489 1490 1492 1492 1492 1492 1492 1491 1491 1491 1492 1492
1536 1535 1534 1536 1536 1532 1530 1528 1527 1527 1530 1527 1522 1517 1512 1507 1503 1498 1494 1491 1488 1485 1483 1481 1481 1481 1480 1481 1482 1483 1485 1485 1486 1487 1488 1489 1489 1490 1489 1489 1489 1489 1489 1490
1542 1536 1535 1544 1546 1543 1540 1538 1535 1537 1538 1531 1524 1519 1515 1512 1507 1503 1499 1495 1492 1490 1488 1487 1485 1484 1483 1483 1482 1483 1483 1484 1485 1486 1486 1486 1486 1486 1486 1486 1486 1486 1486 1486
1544 1542 1550 1555 1547 1547 1544 1542 1542 1540 1537 1532 1527 1521 1517 1514 1510 1506 1503 1500 1497 1495 1494 1492 1490 1489 1487 1486 1485 1484 1484 1484 1484 1483 1482 1482 1482 1482 1482 1481 1482 1482 1482 1483
1548 1550 1552 1550 1546 1546 1546 1544 1543 1541 1537 1532 1526 1520 1516 1514 1511 1509 1506 1504 1502 1500 1498 1496 1493 1492 1490 1488 1486 1485 1484 1483 1483 1482 1481 1480 1479 1478 1477 1477 1478 1478 1479 1479
1551 1553 1556 1554 1546 1544 1547 1545 1543 1541 1538 1533 1529 1526 1523 1516 1513 1510 1508 1506 1504 1503 1500 1498 1496 1494 1492 1490 1488 1486 1485 1484 1483 1481 1480 1478 1476 1475 1474 1474 1474 1474 1474 1475
1555 1556 1555 1549 1545 1544 1550 1551 1543 1540 1537 1535 1532 1531 1525 1518 1515 1512 1510 1508 1506 1504 1502 1500 1499 1496 1494 1492 1490 1489 1487 1485 1483 1481 1479 1477 1475 1473 1472 1471 1471 1471 1471 1472
1557 1559 1559 1547 1545 1548 1549 1544 1541 1539 1536 1533 1531 1526 1522 1518 1515 1512 1510 1508 1507 1505 1503 1502 1500 1498 1496 1493 1492 1490 1489 1486 1484 1482 1479 1477 1475 1473 1472 1471 1470 1470 1470 1470
1554 1555 1548 1546 1546 1545 1544 1542 1540 1538 1535 1532 1529 1525 1521 1518 1515 1512 1510 1508 1507 1506 1505 1503 1502 1500 1497 1495 1493 1492 1490 1488 1486 1484 1481 1479 1477 1475 1473 1472 1471 1470 1469 1469
1548 1547 1546 1545 1545 1543 1542 1540 1538 1536 1533 1531 1528 1524 1521 1517 1514 1512 1510 1508 1507 1506 1505 1504 1503 1501 1499 1497 1495 1493 1492 1490 1488 1486 1484 1482 1479 1477 1476 1474 1472 1471 1470 1469
1546 1545 1544 1543 1543 1542 1540 1538 1536 1534 1532 1529 1526 1523 1520 1517 1514 1511 1509 1508 1507 1506 1505 1504 1503 1502 1500 1498 1496 1495 1493 1491 1490 1488 1486 1484 1482 1480 1478 1476 1475 1473 1472 1471
1544 1541 1542 1542 1541 1540 1538 1537 1535 1533 1530 1528 1526 1522 1519 1516 1514 1511 1509 1507 1506 1505 1505 1504 1503 1502 1501 1499 1497 1495 1494 1492 1491 1489 1487 1486 1484 1482 1480 1478 1477 1475 1474 1472
1536 1537 1539 1539 1539 1538 1537 1535 1533 1531 1529 1526 1524 1521 1518 1515 1513 1511 1508 1507 1505 1504 1504 1503 1503 1502 1501 1500 1498 1496 1494 1493 1491 1490 1488 1487 1485 1483 1482 1481 1479 1477 1475 1474
1533 1535 1536 1537 1537 1536 1535 1534 1532 1530 1528 1525 1523 1520 1517 1514 1512 1509 1507 1505 1504 1503 1502 1502 1502 1501 1501 1499 1498 1496 1495 1493 1492 1491 1489 1488 1486 1485 1483 1482 1481 1479 1478 1476
1531 1533 1534 1535 1535 1534 1533 1532 1530 1528 1526 1523 1521 1518 1515 1512 1510 1508 1506 1504 1502 1501 1501 1500 1500 1500 1500 1499 1497 1496 1494 1493 1492 1491 1490 1489 1488 1486 1485 1484 1483 1482 1480 1479
1529 1531 1532 1532 1532 1532 1531 1530 1528 1526 1524 1522 1519 1516 1514 1511 1509 1507 1505 1503 1501 1499 1499 1498 1498 1498 1498 1498 1497 1495 1494 1493 1493 1492 1491 1490 1489 1488 1487 1486 1485 1484 1483 1482
1526 1528 1529 1530 1530 1530 1529 1528 1527 1525 1523 1520 1518 1515 1512 1509 1507 1505 1503 1501 1499 1498 1497 1496 1496 1497 1497 1496 1496 1495 1494 1493 1493 1492 1492 1491 1490 1489 1489 1488 1487 1486 1486 1485
1522 1524 1526 1527 1527 1527 1527 1526 1524 1523 1521 1519 1516 1513 1510 1507 1504 1502 1501 1499 1498 1497 1496 1495 1494 1494 1495 1495 1494 1494 1493 1493 1493 1492 1492 1491 1491 1490 1490 1490 1489 1489 1488 1487
1519 1522 1523 1524 1525 1525 1524 1523 1522 1521 1519 1517 1514 1511 1509 1506 1503 1501 1499 1497 1496 1495 1494 1493 1492 1493 1493 1493 1493 1493 1492 1492 1492 1492 1492 1492 1492 1491 1491 1491 1491 1490 1490 1489
1516 1519 1520 1522 1522 1522 1522 1521 1520 1518 1517 1515 1512 1510 1507 1504 1501 1499 1497 1496 1494 1493 1492 1491 1491 1491 1492 1492 1492 1491 1491 1491 1492 1492 1492 1492 1492 1492 1492 1492 1492 1492 1492 1491
1513 1515 1517 1519 1520 1520 1520 1519 1518 1516 1514 1512 1510 1508 1505 1503 1500 1497 1495 1493 1492 1491 1490 1490 1489 1489 1490 1490 1490 1490 1490 1490 1491 1491 1491 1492 1492 1492 1493 1493 1493 1493 1492 1492
1510 1512 1514 1516 1517 1517 1517 1516 1515 1513 1512 1510 1508 1506 1503 1500 1498 1495 1493 1492 1490 1489 1488 1488 1488 1488 1488 1489 1489 1489 1489 1489 1490 1490 1491 1491 1492 1492 1492 1493 1493 1493 1493 1492
1506 1509 1511 1513 1514 1514 1514 1513 1512 1511 1509 1507 1505 1503 1501 1499 1496 1493 1490 1489 1488 1487 1486 1486 1486 1486 1486 1487 1487 1487 1488 1488 1489 1489 1490 1491 1491 1492 1492 1492 1493 1493 1492 1492
1503 1505 1508 1509 1510 1511 1510 1510 1509 1508 1506 1505 1503 1501 1499 1496 1494 1492 1489 1487 1485 1484 1484 1483 1483 1484 1484 1485 1486 1486 1486 1487 1487 1488 1489 1490 1490 1491 1491 1492 1492 1492 1492 1491
1499 1502 1504 1506 1506 1507 1507 1506 1506 1505 1503 1502 1501 1499 1497 1495 1492 1489 1487 1484 1483 1482 1481 1481 1481 1482 1482 1483 1484 1484 1485 1485 1486 1487 1488 1489 1489 1490 1491 1491 1491 1491 1491 1491
1495 1498 1500 1501 1502 1503 1503 1503 1502 1501 1500 1499 1497 1496 1494 1492 1490 1487 1485 1482 1481 1480 1479 1479 1479 1480 1480 1481 1482 1483 1483 1484 1484 1485 1486 1487 1488 1489 1489 1490 1490 1490 1490 1490
1491 1493 1495 1497 1498 1499 1499 1499 1498 1498 1497 1496 1494 1493 1491 1489 1488 1485 1482 1480 1479 1478 1477 1476 1477 1477 1478 1479 1480 1481 1482 1482 1483 1483 1484 1485 1486 1487 1487 1488 1489 1489 1489 1489